Hearne, TX

6:28 PM CDT on August 25, 2016 (GMT -0500)
Hearne

Weather History for KLHB - November, 2013

Change the Weather History Date:

Friday, November 29, 2013

  Actual Average (KCLL) Record (KCLL)
Temperature  
Mean Temperature 46 °F 56 °F  
Max Temperature 61 °F 66 °F 84 °F (1933)
Min Temperature 31 °F 46 °F 19 °F (1976)
Degree Days  
Heating Degree Days 19 10  
Month to date heating degree days 177  
Since 1 July heating degree days 214  
Cooling Degree Days 0 1  
Month to date cooling degree days 59  
Year to date cooling degree days 3071  
Moisture  
Dew Point 37 °F    
Average Humidity 75    
Maximum Humidity 98    
Minimum Humidity 46    
Precipitation  
Precipitation 0.00 in 0.11 in 1.22 in (1930)
Month to date precipitation 3.11  
Year to date precipitation 36.72  
Sea Level Pressure  
Sea Level Pressure 30.45 in    
Wind  
Wind Speed 1 mph (ESE)    
Max Wind Speed 7 mph    
Max Gust Speed -    
Visibility 9 miles    
Events      
T = Trace of Precipitation, MM = Missing Value Source: NWS Daily Summary

Daily Weather History Graph

Daily Weather History Graph

Search for Another Location

Airport or City:

Trip Planner

Search our weather history database for the weather conditions in past years. The results will help you decide how hot, cold, wet, or windy it might be!

Date:

Astronomy

Nov. 29, 2013 Rise Set
Actual Time 7:05 AM CST 5:24 PM CST
Civil Twilight 6:39 AM CST 5:50 PM CST
Nautical Twilight 6:09 AM CST 6:20 PM CST
Astronomical Twilight 5:40 AM CST 6:49 PM CST
Moon 3:24 AM CST (11/29) 2:58 PM CST (11/29)
Length of Visible Light 11h 11m
Length of Day
10h 19m
Waning Crescent, 14% of the Moon is Illuminated
Nov 29
Waning Crescent
Dec 2
New
Dec 9
First Quarter
Dec 17
Full
Dec 25
Last Quarter

Hourly Weather History & Observations

Time (CST) Temp. Windchill Dew Point Humidity Pressure Visibility Wind Dir Wind Speed Gust Speed Precip Events Conditions
12:15 AM 37.8 °F - 33.6 °F 85% 30.48 in 10.0 mi Calm Calm - N/A   Clear
12:35 AM 36.9 °F - 33.6 °F 88% 30.48 in 10.0 mi Calm Calm - N/A   Clear
12:55 AM 37.0 °F - 34.3 °F 90% 30.47 in 10.0 mi Calm Calm - N/A   Clear
1:15 AM 37.4 °F 34.9 °F 34.7 °F 90% 30.47 in 10.0 mi East 3.5 mph - N/A   Clear
1:35 AM 36.9 °F - 34.5 °F 91% 30.47 in 10.0 mi Calm Calm - N/A   Clear
1:55 AM 36.0 °F - 34.0 °F 93% 30.47 in 7.0 mi Calm Calm - N/A   Clear
2:15 AM 36.5 °F - 34.5 °F 93% 30.47 in 7.0 mi Calm Calm - N/A   Clear
2:35 AM 34.9 °F - 32.7 °F 92% 30.47 in 7.0 mi Calm Calm - N/A   Clear
2:55 AM 34.0 °F - 32.5 °F 94% 30.47 in 5.0 mi Calm Calm - N/A   Clear
3:15 AM 33.3 °F - 32.0 °F 95% 30.47 in 5.0 mi Calm Calm - N/A   Clear
3:35 AM 34.2 °F - 32.9 °F 95% 30.47 in 5.0 mi Calm Calm - N/A   Clear
3:55 AM 32.5 °F - 31.8 °F 97% 30.48 in 7.0 mi Calm Calm - N/A   Clear
4:15 AM 32.2 °F - 31.6 °F 98% 30.48 in 5.0 mi Calm Calm - N/A   Clear
4:35 AM 32.2 °F - 31.6 °F 98% 30.48 in 7.0 mi Calm Calm - N/A   Clear
4:55 AM 31.8 °F - 30.9 °F 96% 30.48 in 4.0 mi Calm Calm - N/A   Clear
5:15 AM 33.8 °F 30.8 °F 32.7 °F 96% 30.48 in 5.0 mi ENE 3.5 mph - N/A   Clear
5:35 AM 34.0 °F 31.0 °F 32.9 °F 96% 30.49 in 7.0 mi ENE 3.5 mph - N/A   Clear
5:55 AM 33.1 °F - 32.0 °F 96% 30.49 in 5.0 mi Calm Calm - N/A   Clear
6:15 AM 32.9 °F - 32.0 °F 96% 30.49 in 5.0 mi Calm Calm - N/A   Clear
6:35 AM 31.8 °F - 30.6 °F 95% 30.49 in 5.0 mi Calm Calm - N/A   Clear
6:55 AM 32.0 °F - 30.9 °F 96% 30.49 in 5.0 mi Calm Calm - N/A   Clear
7:15 AM 31.8 °F - 30.7 °F 96% 30.50 in 4.0 mi Calm Calm - N/A   Clear
7:35 AM 31.6 °F - 30.4 °F 95% 30.51 in 5.0 mi Calm Calm - N/A   Clear
7:55 AM 32.2 °F - 31.5 °F 97% 30.51 in 5.0 mi Calm Calm - N/A   Clear
8:15 AM 35.2 °F - 34.0 °F 95% 30.51 in 5.0 mi Calm Calm - N/A   Clear
8:35 AM 37.6 °F - 35.2 °F 91% 30.52 in 7.0 mi Calm Calm - N/A   Clear
8:55 AM 40.6 °F - 36.7 °F 86% 30.52 in 10.0 mi Calm Calm - N/A   Clear
9:15 AM 43.0 °F - 37.0 °F 80% 30.53 in 10.0 mi Calm Calm - N/A   Clear
9:35 AM 44.6 °F - 38.5 °F 79% 30.53 in 10.0 mi Calm Calm - N/A   Clear
9:55 AM 46.6 °F - 37.8 °F 71% 30.53 in 10.0 mi Calm Calm - N/A   Clear
10:15 AM 49.6 °F - 37.8 °F 64% 30.53 in 10.0 mi ESE 3.5 mph - N/A   Clear
10:35 AM 51.4 °F - 38.8 °F 62% 30.53 in 10.0 mi Calm Calm - N/A   Clear
10:55 AM 52.7 °F - 39.0 °F 60% 30.53 in 10.0 mi Calm Calm - N/A   Clear
11:15 AM 54.3 °F - 39.2 °F 57% 30.52 in 10.0 mi ENE 3.5 mph - N/A   Clear
11:35 AM 55.4 °F - 39.6 °F 55% 30.52 in 10.0 mi ESE 3.5 mph - N/A   Clear
11:55 AM 56.1 °F - 39.2 °F 53% 30.50 in 10.0 mi NE 3.5 mph - N/A   Clear
12:15 PM 57.4 °F - 39.2 °F 51% 30.49 in 10.0 mi ENE 3.5 mph - N/A   Clear
12:35 PM 57.4 °F - 38.3 °F 49% 30.48 in 10.0 mi Calm Calm - N/A   Clear
12:55 PM 57.9 °F - 38.8 °F 49% 30.47 in 10.0 mi Calm Calm - N/A   Clear
1:15 PM 59.5 °F - 39.2 °F 47% 30.45 in 10.0 mi Calm Calm - N/A   Clear
1:35 PM 59.5 °F - 39.7 °F 48% 30.44 in 10.0 mi Calm Calm - N/A   Clear
1:55 PM 59.5 °F - 39.6 °F 48% 30.42 in 10.0 mi Calm Calm - N/A   Clear
2:15 PM 61.5 °F - 40.6 °F 46% 30.41 in 10.0 mi ENE 3.5 mph - N/A   Clear
2:35 PM 60.1 °F - 41.0 °F 49% 30.40 in 10.0 mi Calm Calm - N/A   Clear
2:55 PM 61.7 °F - 41.5 °F 48% 30.39 in 10.0 mi East 3.5 mph - N/A   Clear
3:15 PM 60.8 °F - 41.2 °F 48% 30.39 in 10.0 mi SSE 3.5 mph - N/A   Clear
3:35 PM 61.2 °F - 41.2 °F 48% 30.39 in 10.0 mi SE 3.5 mph - N/A   Clear
3:55 PM 61.2 °F - 41.0 °F 47% 30.39 in 10.0 mi ESE 4.6 mph - N/A   Clear
4:15 PM 61.0 °F - 41.5 °F 49% 30.38 in 10.0 mi ESE 3.5 mph - N/A   Clear
4:35 PM 59.7 °F - 41.4 °F 51% 30.39 in 10.0 mi SE 6.9 mph - N/A   Clear
4:55 PM 58.3 °F - 41.9 °F 54% 30.38 in 10.0 mi ESE 3.5 mph - N/A   Clear
5:15 PM 57.2 °F - 41.7 °F 56% 30.38 in 10.0 mi Calm Calm - N/A   Clear
5:35 PM 55.8 °F - 41.4 °F 58% 30.38 in 10.0 mi Calm Calm - N/A   Clear
5:55 PM 54.3 °F - 41.5 °F 62% 30.38 in 10.0 mi Calm Calm - N/A   Clear
6:15 PM 53.2 °F - 41.5 °F 65% 30.39 in 10.0 mi Calm Calm - N/A   Clear
6:35 PM 51.1 °F - 41.4 °F 69% 30.39 in 10.0 mi Calm Calm - N/A   Clear
6:55 PM 50.5 °F - 41.5 °F 71% 30.39 in 10.0 mi Calm Calm - N/A   Clear
7:15 PM 47.3 °F - 41.4 °F 80% 30.40 in 10.0 mi Calm Calm - N/A   Clear
7:35 PM 46.0 °F - 41.0 °F 83% 30.40 in 10.0 mi Calm Calm - N/A   Clear
7:55 PM 46.2 °F - 41.0 °F 82% 30.41 in 10.0 mi Calm Calm - N/A   Clear
8:15 PM 44.1 °F - 40.1 °F 86% 30.41 in 10.0 mi Calm Calm - N/A   Clear
8:35 PM 43.7 °F - 40.3 °F 88% 30.41 in 10.0 mi Calm Calm - N/A   Scattered Clouds
8:55 PM 44.6 °F - 41.0 °F 87% 30.41 in 10.0 mi Calm Calm - N/A   Mostly Cloudy
9:15 PM 47.5 °F - 41.2 °F 79% 30.41 in 10.0 mi East 4.6 mph - N/A   Overcast
9:35 PM 48.4 °F - 40.1 °F 73% 30.40 in 10.0 mi East 4.6 mph - N/A   Overcast
9:55 PM 48.6 °F - 39.6 °F 71% 30.40 in 10.0 mi ESE 3.5 mph - N/A   Overcast
10:15 PM 48.4 °F - 39.4 °F 71% 30.40 in 10.0 mi ESE 5.8 mph - N/A   Mostly Cloudy
10:35 PM 48.7 °F - 39.6 °F 71% 30.40 in 10.0 mi ESE 5.8 mph - N/A   Mostly Cloudy
10:55 PM 49.5 °F - 40.1 °F 70% 30.40 in 10.0 mi ESE 5.8 mph - N/A   Overcast
11:15 PM 49.5 °F - 40.5 °F 71% 30.40 in 10.0 mi ESE 4.6 mph - N/A   Overcast
11:35 PM 49.1 °F - 40.3 °F 72% 30.40 in 10.0 mi ESE 5.8 mph - N/A   Scattered Clouds
11:55 PM 48.6 °F - 40.1 °F 73% 30.40 in 10.0 mi ESE 6.9 mph - N/A   Clear